User: anonymous   Login
Location: Hale Hill Observatory
(39.3806°N, 86.8431°W)
Time: 13:49:23
(UTC-04:00)
Language:

Cosmos 990 Rocket - Orbit

View from above orbital plane
View from above orbital plane
View from above satellite
View from above satellite

Ground track
Ground track

The orbit data is extracted from the following two-line orbital elements,

1 10677U 78019B   14303.38669954  .00000469  00000-0  15795-3 0  5475
2 10677 074.0378 276.2758 0016222 230.9101 129.0612 14.39709395924206
Epoch (UTC): 30 October 2014 09:16:50
Eccentricity: 0.0016222
inclination: 74.0378°
perigee height: 748 km
apogee height: 771 km
right ascension of ascending node: 276.2758°
argument of perigee: 230.9101°
revolutions per day: 14.39709395
mean anomaly at epoch: 129.0612°
orbit number at epoch: 92420

The dashed part of the orbit path shows where the satellite is in the earth's shadow,  

DLR